Weather reports worldwide

Advertisment
Girona/Costa Brava, Spain (8184): temperature & dewpoint: 08.10.2019 13:00:00 - 14.10.2019 13:00:00 (CEST)Girona/Costa Brava, Spain (8184): wind speed: 08.10.2019 13:00:00 - 14.10.2019 13:00:00 (CEST)Girona/Costa Brava, Spain (8184): wind direction: 08.10.2019 13:00:00 - 14.10.2019 13:00:00 (CEST)Girona/Costa Brava, Spain (8184): reduced air pressure: 08.10.2019 13:00:00 - 14.10.2019 13:00:00 (CEST)Girona/Costa Brava, Spain (8184): visibility: 08.10.2019 13:00:00 - 14.10.2019 13:00:00 (CEST)
Date & Time tt [°C] td [°C] ff [km/h] ff [kn] dd ppp [hPa] vv [km]
14.10.2019 13:00:00 23,5 17,7 4 2 E 1014,3 -
14.10.2019 12:00:00 22,7 18,1 5 3 NE 1015,0 -
14.10.2019 11:00:00 21,2 18,2 9 5 NNE 1015,0 10
14.10.2019 10:00:00 19,8 17,9 8 4 N 1015,3 -
14.10.2019 09:00:00 18,6 17,1 4 2 N 1015,2 -
14.10.2019 08:00:00 18,0 17,2 4 2 NNE 1015,1 -
14.10.2019 07:00:00 18,1 17,3 0 0 N 1015,1 -
14.10.2019 06:00:00 18,4 17,6 0 0 N 1015,5 -
14.10.2019 05:00:00 18,5 17,8 5 3 WNW 1016,0 -
14.10.2019 04:00:00 18,2 17,7 5 3 W 1016,1 -
14.10.2019 03:00:00 18,0 17,4 0 0 N 1016,4 -
14.10.2019 02:00:00 18,8 18,1 0 0 N 1017,0 -
14.10.2019 01:00:00 18,2 17,4 0 0 N 1017,1 -
14.10.2019 00:00:00 18,5 17,3 0 0 N 1017,6 -
13.10.2019 23:00:00 19,6 18,1 0 0 N 1017,8 -
13.10.2019 22:00:00 20,0 18,1 0 0 N 1017,5 -
13.10.2019 21:00:00 20,1 17,9 9 5 S 1017,4 -
13.10.2019 20:00:00 20,8 18,0 9 5 S 1017,3 15
13.10.2019 19:00:00 21,3 17,9 16 9 SSE 1016,9 -
13.10.2019 18:00:00 23,4 18,1 18 10 SSE 1016,6 -
13.10.2019 17:00:00 24,1 17,8 18 10 S 1016,4 -
13.10.2019 16:00:00 26,0 17,9 22 12 S 1016,2 -
13.10.2019 15:00:00 26,8 17,7 18 10 S 1016,4 -
13.10.2019 14:00:00 25,9 18,3 15 8 S 1017,1 -
13.10.2019 13:00:00 25,0 18,0 15 8 S 1017,9 -
13.10.2019 12:00:00 24,3 18,2 8 4 S 1018,1 -
13.10.2019 11:00:00 22,1 18,1 4 2 WSW 1018,2 -
13.10.2019 10:00:00 19,5 17,1 4 2 WNW 1018,2 -
13.10.2019 09:00:00 17,5 16,5 8 4 NE 1017,9 -
13.10.2019 08:00:00 18,0 16,2 0 0 N 1017,5 21
13.10.2019 07:00:00 18,1 15,9 0 0 N 1017,5 -
13.10.2019 06:00:00 17,9 16,4 0 0 N 1017,3 -
13.10.2019 05:00:00 17,9 16,4 0 0 N 1017,7 -
13.10.2019 04:00:00 18,2 16,5 0 0 N 1017,8 -
13.10.2019 03:00:00 18,2 16,9 0 0 N 1018,5 -
13.10.2019 02:00:00 18,4 17,1 0 0 N 1018,6 -
13.10.2019 01:00:00 18,6 17,3 0 0 N 1018,8 -
13.10.2019 00:00:00 18,5 17,7 8 4 SW 1019,2 -
12.10.2019 23:00:00 18,3 17,3 4 2 WSW 1019,2 -
12.10.2019 22:00:00 18,7 17,5 5 3 WSW 1018,6 -
12.10.2019 21:00:00 19,5 17,8 15 8 S 1018,6 -
12.10.2019 20:00:00 20,0 17,6 22 12 S 1018,1 25
12.10.2019 19:00:00 20,5 17,3 28 15 S 1017,7 -
12.10.2019 18:00:00 21,6 17,8 22 12 S 1017,9 -
12.10.2019 17:00:00 23,7 17,2 29 16 S 1017,6 25
12.10.2019 16:00:00 24,8 16,9 26 14 S 1017,9 -
12.10.2019 15:00:00 24,9 16,3 29 16 S 1018,0 -
12.10.2019 14:00:00 25,2 16,6 31 17 S 1018,7 25
12.10.2019 13:00:00 23,3 17,7 34 18 S 1019,5 -
12.10.2019 12:00:00 22,5 18,7 28 15 S 1019,8 -
12.10.2019 11:00:00 22,1 19,3 22 12 S 1019,7 25
12.10.2019 10:00:00 19,9 18,2 8 4 W 1019,4 -
12.10.2019 09:00:00 18,6 17,3 11 6 WSW 1019,0 -
12.10.2019 08:00:00 18,4 17,1 11 6 WSW 1018,7 -
12.10.2019 07:00:00 17,7 16,9 16 9 SW 1018,5 -
12.10.2019 06:00:00 17,8 17,2 11 6 SW 1018,3 -
12.10.2019 05:00:00 17,4 16,8 9 5 SW 1018,3 -
12.10.2019 04:00:00 17,6 16,8 9 5 SSW 1018,5 -
12.10.2019 03:00:00 17,3 16,3 8 4 SW 1018,9 -
12.10.2019 02:00:00 17,2 16,3 9 5 SW 1019,1 -
12.10.2019 01:00:00 16,9 15,8 0 0 N 1019,5 -
12.10.2019 00:00:00 17,4 15,7 4 2 SSW 1019,6 -
11.10.2019 23:00:00 18,1 16,8 5 3 SW 1019,6 -
11.10.2019 22:00:00 19,2 16,6 0 0 N 1019,0 -
11.10.2019 21:00:00 20,5 17,3 13 7 SSW 1018,3 -
11.10.2019 20:00:00 21,2 17,6 18 10 SSW 1018,0 -
11.10.2019 19:00:00 23,2 17,6 22 12 SSW 1017,4 -
11.10.2019 18:00:00 25,1 17,0 26 14 SSW 1017,0 -
11.10.2019 17:00:00 27,0 16,9 22 12 SSW 1017,0 -
11.10.2019 16:00:00 27,3 16,1 21 11 SSW 1017,3 -
11.10.2019 15:00:00 26,9 15,9 18 10 S 1017,9 -
11.10.2019 14:00:00 26,5 16,1 16 9 SSW 1018,8 -
11.10.2019 13:00:00 25,4 16,0 24 13 SSW 1019,7 -
11.10.2019 12:00:00 23,4 16,0 16 9 SW 1020,4 -
11.10.2019 11:00:00 19,9 15,5 2 1 SSW 1021,0 30
11.10.2019 10:00:00 14,8 13,3 0 0 N 1021,5 -
11.10.2019 09:00:00 13,5 13,0 0 0 N 1021,4 -
11.10.2019 08:00:00 12,2 11,9 0 0 N 1021,2 -
11.10.2019 07:00:00 11,2 10,9 0 0 N 1021,2 -
11.10.2019 06:00:00 11,0 10,7 0 0 N 1021,2 -
11.10.2019 05:00:00 10,8 10,3 2 1 N 1021,4 -
11.10.2019 04:00:00 11,3 10,7 9 5 SSW 1021,4 -
11.10.2019 03:00:00 11,9 11,1 0 0 N 1022,0 -
11.10.2019 02:00:00 12,7 11,8 4 2 W 1022,0 -
11.10.2019 01:00:00 13,6 11,6 0 0 N 1022,2 -
11.10.2019 00:00:00 14,3 12,2 0 0 N 1022,3 -
10.10.2019 23:00:00 16,3 13,2 0 0 N 1022,0 -
10.10.2019 22:00:00 17,4 13,7 0 0 N 1021,8 -
10.10.2019 21:00:00 18,0 13,7 8 4 SSE 1021,3 -
10.10.2019 20:00:00 18,4 13,5 11 6 SE 1021,0 -
10.10.2019 19:00:00 19,3 15,0 13 7 SSE 1020,6 -
10.10.2019 18:00:00 20,8 14,9 21 11 S 1020,0 -
10.10.2019 17:00:00 22,6 14,3 16 9 SSW 1020,1 20
10.10.2019 16:00:00 23,4 14,9 13 7 S 1020,2 -
10.10.2019 15:00:00 23,2 13,4 13 7 S 1020,6 -
10.10.2019 14:00:00 22,8 12,3 9 5 S 1021,3 -
10.10.2019 13:00:00 20,7 12,1 8 4 ESE 1022,0 -
10.10.2019 12:00:00 19,3 12,2 4 2 E 1022,5 -
10.10.2019 11:00:00 18,1 11,9 5 3 ESE 1022,6 30
10.10.2019 10:00:00 16,5 14,1 9 5 SE 1022,5 -
10.10.2019 09:00:00 16,2 11,2 0 0 N 1021,5 -
10.10.2019 08:00:00 15,9 11,0 9 5 NNE 1020,7 -
10.10.2019 07:00:00 15,5 12,1 8 4 NNE 1020,3 -
10.10.2019 06:00:00 15,8 14,3 9 5 NNE 1020,3 -
10.10.2019 05:00:00 15,8 14,7 4 2 ENE 1019,9 -
10.10.2019 04:00:00 16,0 14,2 0 0 N 1019,8 -
10.10.2019 03:00:00 16,3 13,1 4 2 W 1020,2 -
10.10.2019 02:00:00 16,4 13,7 5 3 WNW 1020,4 -
10.10.2019 01:00:00 16,8 13,7 0 0 N 1020,2 -
10.10.2019 00:00:00 17,2 11,9 4 2 E 1020,0 -
09.10.2019 23:00:00 17,1 12,2 2 1 NNW 1019,7 -
09.10.2019 22:00:00 17,0 12,6 4 2 NE 1019,5 -
09.10.2019 21:00:00 17,4 15,6 0 0 N 1019,3 -
09.10.2019 20:00:00 17,5 16,0 0 0 N 1018,9 -
09.10.2019 19:00:00 17,4 15,7 0 0 N 1018,3 -
09.10.2019 18:00:00 17,5 15,8 5 3 SW 1018,0 -
09.10.2019 17:00:00 17,4 15,0 4 2 ESE 1017,7 -
09.10.2019 16:00:00 17,8 15,4 8 4 ESE 1017,7 -
09.10.2019 15:00:00 20,0 14,1 16 9 E 1016,9 -
09.10.2019 14:00:00 22,0 15,4 16 9 E 1016,4 -
09.10.2019 13:00:00 24,7 14,5 4 2 ENE 1016,4 -
09.10.2019 12:00:00 24,1 15,8 4 2 SE 1016,7 -
09.10.2019 11:00:00 21,6 16,0 11 6 NE 1017,1 -
09.10.2019 10:00:00 18,8 15,8 9 5 ENE 1016,8 -
09.10.2019 09:00:00 15,2 14,6 8 4 NNE 1016,8 -
09.10.2019 08:00:00 12,8 12,3 5 3 W 1016,1 -
09.10.2019 07:00:00 13,5 12,9 0 0 N 1016,3 -
09.10.2019 06:00:00 14,1 13,6 0 0 N 1016,2 -
09.10.2019 05:00:00 14,3 13,8 0 0 N 1016,3 -
09.10.2019 04:00:00 14,7 13,9 4 2 NNE 1016,3 -
09.10.2019 03:00:00 15,3 14,3 4 2 ENE 1016,9 -
09.10.2019 02:00:00 15,8 14,6 0 0 N 1016,8 -
09.10.2019 01:00:00 16,1 14,6 8 4 NNE 1016,8 -
09.10.2019 00:00:00 17,4 15,4 5 3 WSW 1016,8 -
08.10.2019 23:00:00 19,0 16,0 8 4 N 1016,5 -
08.10.2019 22:00:00 19,1 16,7 9 5 NNE 1016,3 -
08.10.2019 21:00:00 20,0 16,6 8 4 NNE 1015,5 -
08.10.2019 20:00:00 21,6 17,2 13 7 S 1014,8 2,0
08.10.2019 19:00:00 23,2 17,4 18 10 S 1014,5 -
08.10.2019 18:00:00 25,0 17,0 24 13 S 1014,2 -
08.10.2019 17:00:00 26,1 16,1 28 15 S 1014,3 -
08.10.2019 16:00:00 27,5 15,5 22 12 S 1014,6 -
08.10.2019 15:00:00 27,3 15,4 22 12 S 1015,2 -
08.10.2019 14:00:00 27,2 15,0 18 10 S 1016,1 30
08.10.2019 13:00:00 25,7 14,3 21 11 SSW 1017,4 -

tt = temperature
td = dewpoint
ff = wind speed
dd = wind direction
ppp = reduced air pressure
vv = visibility

Next stations